User: anonymous   Login
Location: Unspecified
(0.0000°N, 0.0000°E)
Time: 09:28:16
(UTC+00:00)
Language:

ODIN - Orbit

View from above orbital plane
View from above orbital plane
View from above satellite
View from above satellite

Ground track
Ground track

The orbit data is extracted from the following two-line orbital elements,

1 26702U 01007A   18019.11989525  .00000695  00000-0  50007-4 0  9990
2 26702  97.6003  38.7056 0011724  43.4245 316.7904 15.07415605924177
Epoch (UTC): 19 January 2018 02:52:38
Eccentricity: 0.0011724
inclination: 97.6003°
perigee height: 536 km
apogee height: 552 km
right ascension of ascending node: 38.7056°
argument of perigee: 43.4245°
revolutions per day: 15.07415605
mean anomaly at epoch: 316.7904°
orbit number at epoch: 92417

The dashed part of the orbit path shows where the satellite is in the earth's shadow,  

DLR